COSMOS 1275 DEB, 12753

Orbit data source: Space-Track

COSMOS 1275 DEB, 12753 is space debris in LEO originally from a launch on Thu, 04 Jun 1981 UTC launched from the Plesetsk Missile And Space Complex (PKMTR). Debris objects in space refer to the collection of defunct objects orbiting the Earth. Examples of debris include non-operational satellites, rocket bodies, and fragments generated from explosions, collisions, or faulty payload assembly.

Loading next visibility...
Identifier
12753, 1981-053CW
Orbit
LEO
Country
Flag of CISCIS
Related business
Manufacturer
Unknown
Mission
Spacecraft
Bus & Motor
Unknown
Mass
Unknown
Launch date (UTC)
1981-06-04 (45 years ago)
Launch vehicle
Unknown
Launch site
Plesetsk Missile And Space Complex (PKMTR)
Object type
Payload
Rocket body
Debris
Shape & HBR
Unknown shape, 0.1 m
Radar Cross Section
Medium (>0.1 m² and <1 m²)

Expand to show TLE details & history
Last TLE update: 2 days ago

TLE from 2 days ago
0 COSMOS 1275 DEB
1 12753U 81053CW  26171.34181928  .00000605  00000-0  56940-3 0  9996
2 12753  82.8038 119.3502 0095129  23.6517 130.1213 13.77940572241508
Epoch: 2026-06-20T08:12Z
TLE epoch observation values (Epoch: 2026-06-20T08:12:13.185Z)
Latitude
25.21413°
Longitude
-95.65332°
Altitude
1,019.696 km
Speed
7.321 km/s
True Right ascension
19h 43m 50s
True Declination
25° 05' 12"
Sunlit
Object was in full shadow at epoch
Visualization orbit readout
Latitude
Unknown
Longitude
Unknown
Altitude
Unknown
Speed
Unknown
Apparent Right ascension
Unknown
Apparent Declination
Unknown
Sunlit
N/A
Visualization observer readout
Local Sidereal Time
11:12:34
Azimuth
Unknown
Elevation
Unknown
Doppler factor
Unknown
Orbital elements
Apogee altitude
1,038.236 km
Perigee altitude
898.464 km
Semi-major axis
7,346.487 km
Eccentricity
0.00951
Inclination
82.8038°
RAAN
119.3502°
Arg. of periapsis
23.6517°
True anomaly
130.94851°
Mean anomaly
130.1213°
Eccentric anomaly
130.53554°
Mean motion
3.44686 °/min
Orbital period
104.44 mins
BSTAR
0.0005694
Loading maneuver chart data...
Computing Atmospheric mass density...
Loading historical data...
Loading historical data...
Loading historical data...
Loading historical data...
Loading historical data...
Loading historical data...
Loading historical data...

Documentation

Showing up to 5 results
|